When you browse on this site, cookies collect data to enhance your experience and personalize the content and advertising you see.
Visit our Privacy Policy to learn more. By continuing to use the site, you agree to this use of cookies and data.
  • In Hungary
  • List of Countries
  • For 7 days
  • Water Temperature
  • Weather Map
  • News
  • Weather Widgets
  • user-avatar
    Login

    Hourly Weather Sztuki

    Today, 20 September, Friday

    Time Temperature Precipitation Wind Pressure Humidity
    00:00 +3°C° 0 mm 2 mps 724 mmHg 91%
    01:00 +3°C° 0 mm 2 mps 724 mmHg 91%
    02:00 +3°C° 0 mm 2 mps 724 mmHg 92%
    03:00 +3°C° 0 mm 2 mps 724 mmHg 92%
    04:00 +3°C° 0 mm 2 mps 724 mmHg 92%
    05:00 +3°C° 0 mm 2 mps 724 mmHg 91%
    06:00 +4°C° 0 mm 2 mps 724 mmHg 89%
    07:00 +5°C° 0 mm 2 mps 724 mmHg 88%
    08:00 +6°C° 0 mm 2 mps 724 mmHg 82%
    09:00 +8°C° 0 mm 3 mps 725 mmHg 76%
    10:00 +9°C° 0 mm 3 mps 725 mmHg 70%
    11:00 +10°C° 0.1 mm 3 mps 725 mmHg 64%
    12:00 +11°C° 0.1 mm 3 mps 724 mmHg 59%
    13:00 +12°C° 0.1 mm 3 mps 724 mmHg 53%
    14:00 +12°C° 0 mm 3 mps 724 mmHg 57%
    15:00 +11°C° 0 mm 3 mps 724 mmHg 60%
    16:00 +12°C° 0 mm 2 mps 723 mmHg 64%
    17:00 +9°C° 0 mm 2 mps 723 mmHg 69%
    18:00 +8°C° 0 mm 2 mps 723 mmHg 75%
    19:00 +7°C° 0 mm 1 mps 723 mmHg 80%
    20:00 +7°C° 0 mm 1 mps 723 mmHg 82%
    21:00 +6°C° 0 mm 2 mps 724 mmHg 83%
    22:00 +5°C° 0 mm 2 mps 724 mmHg 85%
    23:00 +5°C° 0 mm 2 mps 724 mmHg 85%

    Tomorrow, 21 September, Saturday

    Time Temperature Precipitation Wind Pressure Humidity
    00:00 +5°C° 0 mm 2 mps 724 mmHg 86%
    01:00 +5°C° 0 mm 2 mps 724 mmHg 86%
    02:00 +5°C° 0 mm 2 mps 723 mmHg 87%
    03:00 +5°C° 0 mm 1 mps 723 mmHg 87%
    04:00 +5°C° 0 mm 1 mps 723 mmHg 87%
    05:00 +6°C° 0 mm 1 mps 723 mmHg 84%
    06:00 +7°C° 0 mm 1 mps 723 mmHg 80%
    07:00 +8°C° 0 mm 1 mps 723 mmHg 77%
    08:00 +10°C° 0 mm 1 mps 724 mmHg 69%
    09:00 +12°C° 0 mm 1 mps 724 mmHg 61%
    10:00 +15°C° 0 mm 1 mps 724 mmHg 53%
    11:00 +16°C° 0 mm 2 mps 724 mmHg 52%
    12:00 +16°C° 0 mm 2 mps 723 mmHg 50%
    13:00 +17°C° 0 mm 2 mps 723 mmHg 48%
    14:00 +17°C° 0 mm 2 mps 723 mmHg 52%
    15:00 +17°C° 0 mm 2 mps 723 mmHg 55%
    16:00 +16°C° 0 mm 1 mps 722 mmHg 58%
    17:00 +14°C° 0 mm 1 mps 722 mmHg 64%
    18:00 +12°C° 0 mm 1 mps 722 mmHg 71%
    19:00 +10°C° 0 mm 1 mps 722 mmHg 77%
    20:00 +10°C° 0 mm 1 mps 722 mmHg 78%
    21:00 +9°C° 0 mm 1 mps 722 mmHg 79%
    22:00 +9°C° 0 mm 1 mps 722 mmHg 81%
    23:00 +9°C° 0 mm 1 mps 721 mmHg 81%

    Day after tomorrow, 22 September, Sunday

    Time Temperature Precipitation Wind Pressure Humidity
    00:00 +9°C° 0 mm 1 mps 721 mmHg 81%
    01:00 +8°C° 0 mm 1 mps 721 mmHg 82%
    02:00 +8°C° 0 mm 1 mps 721 mmHg 81%
    03:00 +8°C° 0 mm 1 mps 721 mmHg 81%
    04:00 +8°C° 0 mm 1 mps 721 mmHg 81%
    05:00 +9°C° 0 mm 1 mps 721 mmHg 78%
    06:00 +9°C° 0 mm 1 mps 721 mmHg 75%
    07:00 +10°C° 0 mm 1 mps 721 mmHg 72%
    08:00 +13°C° 0 mm 1 mps 721 mmHg 64%
    09:00 +15°C° 0 mm 1 mps 721 mmHg 57%
    10:00 +19°C° 0 mm 1 mps 721 mmHg 50%
    11:00 +20°C° 0 mm 1 mps 720 mmHg 48%
    12:00 +21°C° 0 mm 1 mps 720 mmHg 46%
    13:00 +21°C° 0 mm 1 mps 720 mmHg 44%
    14:00 +21°C° 0 mm 1 mps 719 mmHg 49%
    15:00 +21°C° 0 mm 1 mps 719 mmHg 53%
    16:00 +20°C° 0 mm 1 mps 718 mmHg 58%
    17:00 +18°C° 0 mm 1 mps 718 mmHg 64%
    18:00 +15°C° 0 mm 1 mps 717 mmHg 70%
    19:00 +12°C° 0 mm 1 mps 717 mmHg 76%
    20:00 +12°C° 0 mm 1 mps 717 mmHg 75%
    21:00 +12°C° 0 mm 1 mps 717 mmHg 74%
    22:00 +11°C° 0 mm 1 mps 717 mmHg 73%
    23:00 +12°C° 0 mm 1 mps 716 mmHg 69%

    23 September, Monday

    Time Temperature Precipitation Wind Pressure Humidity
    00:00 +12°C° 0 mm 1 mps 716 mmHg 66%
    01:00 +12°C° 0 mm 2 mps 715 mmHg 62%
    02:00 +12°C° 0 mm 2 mps 715 mmHg 60%
    03:00 +13°C° 0 mm 2 mps 715 mmHg 58%
    04:00 +13°C° 0 mm 2 mps 714 mmHg 56%
    05:00 +13°C° 0.2 mm 2 mps 714 mmHg 61%
    06:00 +13°C° 0.2 mm 2 mps 714 mmHg 67%
    07:00 +12°C° 0.2 mm 2 mps 713 mmHg 72%
    08:00 +13°C° 0 mm 2 mps 714 mmHg 70%
    09:00 +14°C° 0 mm 2 mps 714 mmHg 69%
    10:00 +15°C° 0 mm 1 mps 714 mmHg 67%
    11:00 +16°C° 0 mm 1 mps 714 mmHg 66%
    12:00 +18°C° 0 mm 1 mps 714 mmHg 64%
    13:00 +19°C° 0 mm 1 mps 714 mmHg 63%
    14:00 +19°C° 0 mm 1 mps 713 mmHg 65%
    15:00 +18°C° 0 mm 1 mps 713 mmHg 68%
    16:00 +18°C° 0 mm 1 mps 713 mmHg 71%
    17:00 +16°C° 0 mm 1 mps 713 mmHg 74%
    18:00 +15°C° 0 mm 1 mps 713 mmHg 78%
    19:00 +14°C° 0 mm 1 mps 713 mmHg 81%
    20:00 +14°C° 0 mm 1 mps 713 mmHg 81%
    21:00 +14°C° 0 mm 1 mps 713 mmHg 81%
    22:00 +14°C° 0 mm 1 mps 713 mmHg 81%
    23:00 +13°C° 0 mm 1 mps 713 mmHg 82%

    24 September, Tuesday

    Time Temperature Precipitation Wind Pressure Humidity
    00:00 +13°C° 0 mm 1 mps 713 mmHg 82%
    01:00 +13°C° 0 mm 1 mps 713 mmHg 83%
    02:00 +13°C° 0 mm 1 mps 713 mmHg 83%
    03:00 +13°C° 0 mm 1 mps 713 mmHg 83%
    04:00 +13°C° 0 mm 1 mps 713 mmHg 83%
    05:00 +13°C° 0 mm 1 mps 713 mmHg 83%
    06:00 +13°C° 0 mm 1 mps 713 mmHg 83%
    07:00 +13°C° 0 mm 1 mps 713 mmHg 83%
    08:00 +14°C° 0 mm 1 mps 714 mmHg 80%
    09:00 +15°C° 0 mm 2 mps 714 mmHg 78%
    10:00 +15°C° 0 mm 2 mps 715 mmHg 76%
    11:00 +16°C° 0 mm 2 mps 715 mmHg 73%
    12:00 +16°C° 0 mm 2 mps 715 mmHg 70%
    13:00 +17°C° 0 mm 2 mps 715 mmHg 67%
    14:00 +17°C° 0 mm 2 mps 715 mmHg 69%
    15:00 +18°C° 0 mm 1 mps 715 mmHg 71%
    16:00 +16°C° 0 mm 1 mps 715 mmHg 73%
    17:00 +16°C° 0 mm 1 mps 715 mmHg 76%
    18:00 +14°C° 0 mm 0 mps 715 mmHg 78%
    19:00 +13°C° 0 mm 0 mps 715 mmHg 81%
    20:00 +13°C° 0 mm 0 mps 715 mmHg 82%
    21:00 +13°C° 0 mm 0 mps 715 mmHg 84%
    22:00 +12°C° 0 mm 0 mps 715 mmHg 86%
    23:00 +12°C° 0 mm 0 mps 715 mmHg 88%

    25 September, Wednesday

    Time Temperature Precipitation Wind Pressure Humidity
    00:00 +11°C° 0 mm 0 mps 715 mmHg 90%
    01:00 +11°C° 0 mm 1 mps 715 mmHg 93%
    02:00 +11°C° 0 mm 1 mps 715 mmHg 93%
    03:00 +11°C° 0 mm 1 mps 714 mmHg 93%
    04:00 +11°C° 0 mm 1 mps 714 mmHg 93%
    05:00 +11°C° 0 mm 1 mps 714 mmHg 91%
    06:00 +12°C° 0 mm 1 mps 714 mmHg 89%
    07:00 +13°C° 0 mm 1 mps 714 mmHg 87%
    08:00 +14°C° 0 mm 1 mps 714 mmHg 79%
    09:00 +16°C° 0 mm 1 mps 714 mmHg 71%
    10:00 +19°C° 0 mm 1 mps 715 mmHg 63%
    11:00 +20°C° 0 mm 1 mps 714 mmHg 60%
    12:00 +20°C° 0 mm 1 mps 714 mmHg 56%
    13:00 +21°C° 0 mm 1 mps 714 mmHg 52%
    14:00 +21°C° 0 mm 1 mps 714 mmHg 56%
    15:00 +20°C° 0 mm 1 mps 713 mmHg 60%
    16:00 +20°C° 0 mm 1 mps 713 mmHg 63%
    17:00 +19°C° 0 mm 1 mps 713 mmHg 68%
    18:00 +16°C° 0 mm 1 mps 713 mmHg 73%
    19:00 +15°C° 0 mm 1 mps 712 mmHg 77%
    20:00 +14°C° 0 mm 1 mps 713 mmHg 77%
    21:00 +14°C° 0 mm 1 mps 713 mmHg 77%
    22:00 +14°C° 0 mm 1 mps 713 mmHg 77%
    23:00 +14°C° 0.4 mm 2 mps 712 mmHg 82%
    Show more